This is the latest recevied weather packets stored in our database for station/object EA1HEH-13. If no packets are shown the sender has not sent any weather packets the latest 10 day(s).
| Time | Temp. | Humidity | Pressure | Rain* | Wind** | Luminosity | Snow |
|---|---|---|---|---|---|---|---|
| 1788569089 | 28.33° C | 19% | 942.1 hPa | - | - | - | - |
| 1788568489 | 28.89° C | 19% | 942 hPa | - | - | - | - |
| 1788567889 | 28.89° C | 18% | 942 hPa | - | - | - | - |
| 1788567289 | 28.89° C | 18% | 942 hPa | - | - | - | - |
| 1788566689 | 29.44° C | 18% | 941.9 hPa | - | - | - | - |
| 1788566089 | 29.44° C | 18% | 941.9 hPa | - | - | - | - |
| 1788565490 | 28.89° C | 19% | 942.1 hPa | - | - | - | - |
| 1788564889 | 28.89° C | 18% | 942.1 hPa | - | - | - | - |
| 1788564289 | 28.89° C | 18% | 942 hPa | - | - | - | - |
| 1788563689 | 29.44° C | 18% | 942 hPa | - | - | - | - |
| 1788563090 | 29.44° C | 18% | 942 hPa | - | - | - | - |
| 1788562489 | 29.44° C | 18% | 942 hPa | - | - | - | - |
| 1788561889 | 29.44° C | 18% | 942 hPa | - | - | - | - |
| 1788561289 | 29.44° C | 18% | 942 hPa | - | - | - | - |
| 1788560689 | 29.44° C | 17% | 942 hPa | - | - | - | - |
| 1788560089 | 30° C | 18% | 941.9 hPa | - | - | - | - |
| 1788559489 | 30° C | 18% | 941.8 hPa | - | - | - | - |
| 1788558889 | 29.44° C | 18% | 941.8 hPa | - | - | - | - |
| 1788558289 | 29.44° C | 18% | 942 hPa | - | - | - | - |
| 1788557689 | 30° C | 18% | 941.9 hPa | - | - | - | - |
| 1788557089 | 30° C | 18% | 941.9 hPa | - | - | - | - |
| 1788556489 | 30° C | 18% | 942.2 hPa | - | - | - | - |
| 1788555889 | 30.56° C | 18% | 942.4 hPa | - | - | - | - |
| 1788555289 | 30.56° C | 17% | 942.4 hPa | - | - | - | - |
| 1788554689 | 30.56° C | 18% | 942.5 hPa | - | - | - | - |
* Rain since midnight (hover to see other rain measurements)
** Current wind speed in m/s (hover to see current wind gust speed)